Location: Cruquius
(52.3348°N, 4.6319°E)
Time: 06:19:28
(UTC+00:00)

NOSS 3-3 (C) - Pass Details

Date: 29 September 2021
Orbit: 801 x 1411 km, 63.4° (Epoch: 05 October)

Event Time Altitude Azimuth Distance (km) Brightness Sun altitude
Rises 20:41:45 0° 311° (NW) 4,026 8.4 -29.2°
Reaches altitude 10° 20:44:55 10° 298° (WNW) 3,158 7.5 -29.6°
Maximum altitude 20:50:45 24° 248° (WSW) 2,399 6.2 -30.3°
Enters shadow 20:55:34 14° 207° (SSW) 3,065 6.4 -30.8°
